[[{"header":{"parameterUnit":"m.s-1","parameterCategory":1,"la1":30.2991,"la2":30.254,"lo1":-89.0895,"lo2":-89.0444,"dy":0.0017,"dx":0.0017,"nx":28,"ny":28,"refTime":"2024-04-08T03:00:00:Z","depth":0,"parameterNumber":2,"parameterNumberName":"U-component_of_WINDS"},"data":[0,0,0,0,0,0,0,0,0,0,0,0,0,0,0,0,0,0,0,0,0,0,0,0,0,0,0,0,0,0,0,0,0,0,0,0,0,0,0,0,0,0,0,0,0,0,0,0,0,0,0,0,0,0,0,0,0,0,-5.9981,-5.9982,0,-6.0059,-6.006,-6.0061,-6.0016,-6.0014,-6.0011,-6.0009,-6.0084,-6.0088,-6.0092,0,0,0,0,0,0,0,0,0,0,0,0,0,-5.9787,-5.9791,-5.9981,-5.9982,-5.9983,-6.0059,-6.006,-6.0061,-6.0016,-6.0014,-6.0011,-6.0008,-6.0083,-6.0087,-6.0092,0,0,0,0,0,0,0,0,0,0,0,0,0,-5.9869,-5.9792,-5.9981,-5.997,-5.9969,-6.0059,-6.006,-6.0061,-6.0017,-6.0013,-6.001,-6.0007,-6.0081,-6.0087,-6.0093,-6.0196,0,0,-6.0111,-6.0114,0,0,0,0,0,0,0,0,-5.9864,-5.9876,-5.997,-5.9971,-5.997,-6.0025,-6.0019,-6.0106,-6.0018,-5.9999,-6.0009,-6.0006,-6.0066,-6.0073,-6.0095,-6.0199,-6.0202,-6.0112,-6.0116,-6.0118,-6.012,0,0,0,0,0,0,0,-5.9859,-5.9872,-6.0012,-5.9972,-5.9972,-5.9959,-5.9967,-6.0035,-6.005,-6.0,-5.9997,-6.0007,-6.0066,-6.009,-6.0097,-6.0204,-6.0112,-6.0117,-6.0121,-6.0123,-6.0394,-6.0398,0,0,0,0,0,0,-5.9854,-5.9868,-6.0009,-6.0014,-5.9908,-5.9965,-5.9974,-6.001,-6.0049,-6.0052,-6.001,-6.0005,-6.0081,-6.009,-6.0099,-6.022,-6.0118,-6.0124,-6.0127,-6.0391,-6.0395,-6.0399,0,0,0,0,0,0,-5.985,-5.9867,-6.0006,-5.994,-5.9957,-5.9972,-6.0013,-6.0014,-6.0037,-6.0057,-6.0058,-6.0032,-6.0079,-6.0091,-6.0172,-6.0222,-6.0126,-6.0132,-6.0387,-6.0392,-6.0397,-6.0464,0,0,0,0,0,0,-5.9845,-5.9866,-5.9906,-5.9942,-5.9961,-6.0079,-6.0016,-6.0018,-6.0048,-6.0042,-6.0077,-6.008,-6.0077,-6.0163,-6.0178,-6.0229,-6.0137,-6.0382,-6.0389,-6.0395,-6.0457,-6.0471,-6.0483,0,0,0,0,0,-5.9838,-5.9921,-5.9909,-5.9926,-6.0011,-6.0082,-6.0093,-6.0089,-6.0053,-6.0092,-6.0105,-6.0079,-6.0216,-6.0172,-6.0188,-6.0241,-6.0379,-6.0387,-6.0395,-6.0452,-6.0469,-6.0483,0,0,0,0,0,0,-5.9889,-5.9925,-5.9912,-6.0009,-6.0043,-6.0074,-6.0124,-6.0107,-6.0151,-6.0143,-6.0135,-6.0144,-6.0228,-6.0244,-6.0195,-6.0342,-6.0291,-6.0303,-6.0329,-6.0345,-6.0357,-6.035,-6.0142,0,0,0,0,0,-5.9912,-5.9969,-5.9997,-6.0079,-6.0098,-6.0109,-6.0139,-6.0134,-6.0168,-6.0181,-6.02,-6.0232,-6.0282,-6.0315,-6.0362,-6.0461,-6.0466,-6.0506,-6.0518,-6.0529,-6.0538,-6.0589,-6.0606,-6.0426,-6.0426,-6.0425,0,0,-5.9959,-5.9986,-6.0021,-6.009,-6.0116,-6.0172,-6.012,-6.0182,-6.0223,-6.019,-6.0268,-6.0283,-6.0319,-6.0409,-6.045,-6.0424,-6.0589,-6.0539,-6.0547,-6.055,-6.0599,-6.0616,-6.0631,-6.0431,-6.043,-6.0429,0,0,-6.0073,-6.01,-6.0172,-6.0199,-6.024,-6.0247,-6.0264,-6.0299,-6.0308,-6.0387,-6.0363,-6.0411,-6.0498,-6.0524,-6.0548,-6.0675,-6.0651,-6.0691,-6.0755,-6.0806,-6.082,-6.0832,-6.0874,-6.089,-6.07,-6.07,-6.0701,0,-6.0125,-6.0211,-6.021,-6.0274,-6.0304,-6.028,-6.035,-6.0377,-6.043,-6.045,-6.0422,-6.0531,-6.0553,-6.0648,-6.0679,-6.0702,-6.0719,-6.0684,-6.0818,-6.0831,-6.0842,-6.0882,-6.0898,-6.0705,-6.0704,-6.0704,-6.0703,0,-6.0272,-6.0332,-6.0384,-6.0438,-6.0475,-6.0542,-6.055,-6.0587,-6.0579,-6.0589,-6.0669,-6.0696,-6.0747,-6.077,-6.0763,-6.0864,-6.0847,-6.0819,-6.0766,-6.0864,-6.0901,-6.0916,-6.0711,-6.0709,-6.0708,-6.0707,0,0,-6.0416,-6.0471,-6.0489,-6.0513,-6.0557,-6.0603,-6.0669,-6.0722,-6.0752,-6.0791,-6.0844,-6.0919,-6.0894,-6.0922,-6.0918,-6.0962,-6.1057,-6.0928,-6.0929,-6.0948,-6.1168,-6.1186,-6.1204,-6.1044,-6.1047,-6.105,-6.1164,0,-6.0529,-6.0646,-6.0648,-6.0754,-6.0808,-6.0788,-6.0845,-6.0877,-6.0889,-6.0935,-6.0947,-6.0999,-6.0963,-6.098,-6.1024,-6.1037,-6.1101,-6.1029,-6.109,-6.1093,-6.1078,-6.1224,-6.1243,-6.1349,-6.1179,-6.1181,-6.1183,0,-6.0677,-6.0722,-6.0834,-6.0871,-6.0893,-6.0945,-6.0993,-6.1039,-6.1075,-6.108,-6.1113,-6.1102,-6.1167,-6.1117,-6.1205,-6.1156,-6.1182,-6.1193,-6.1197,-6.1199,-6.1141,-6.1226,-6.1383,-6.1397,-6.1207,-6.1205,-6.1203,0,-6.0767,-6.0856,-6.0934,-6.0956,-6.1001,-6.1037,-6.1057,-6.1091,-6.1122,-6.1164,-6.1184,-6.1233,-6.1259,-6.1297,-6.1299,-6.1262,-6.1387,-6.1337,-6.139,-6.139,-6.1414,-6.1412,-6.1573,-6.1438,-6.1437,-6.1437,-6.1437,0,-6.0891,-6.096,-6.0975,-6.1022,-6.1098,-6.11,-6.1175,-6.1192,-6.1222,-6.1271,-6.1257,-6.1303,-6.1305,-6.1352,-6.1354,-6.1426,-6.1438,-6.1442,-6.1441,-6.1441,-6.144,-6.1455,-6.1446,-6.1441,-6.144,-6.144,-6.1439,0,-6.1002,-6.1015,-6.1099,-6.1136,-6.1147,-6.1201,-6.1232,-6.1276,-6.1288,-6.135,-6.1365,-6.1382,-6.1437,-6.1444,-6.1507,-6.1509,-6.1594,-6.1587,-6.1582,-6.1579,-6.1631,-6.1625,-6.1805,-6.1827,-6.168,-6.1682,-6.1683,0,-6.1078,-6.1131,-6.1175,-6.1208,-6.123,-6.1284,-6.1316,-6.1321,-6.1355,-6.1401,-6.144,-6.1494,-6.1536,-6.1624,-6.1641,-6.1689,-6.1681,-6.1741,-6.1688,-6.1686,-6.1677,-6.1673,-6.1677,-6.1749,-6.1751,-6.1752,-6.1753,0,-6.1212,-6.1216,-6.1265,-6.1317,-6.1357,-6.1397,-6.1435,-6.1462,-6.1472,-6.1511,-6.1568,-6.1601,-6.1667,-6.1719,-6.1768,-6.1786,-6.177,-6.1771,-6.1785,-6.1783,-6.1777,-6.1778,-6.1606,-6.1765,-6.1764,-6.1763,-6.1763,-6.1762,-6.1305,-6.135,-6.1388,-6.1443,-6.1473,-6.1509,-6.1553,-6.1571,-6.1619,-6.1674,-6.1674,-6.1735,-6.177,-6.1833,-6.1856,-6.1903,-6.1883,-6.1904,-6.1909,-6.1913,-6.1917,-6.1773,-6.1912,-6.1912,-6.1912,-6.1911,-6.1911,0,-6.1435,-6.1459,-6.151,-6.1564,-6.1607,-6.1593,-6.1634,-6.167,-6.1725,-6.176,-6.1804,-6.1868,-6.192,-6.1942,-6.1992,-6.2025,-6.2019,-6.2037,-6.2033,-6.2037,-6.1933,-6.1914,-6.2041,-6.2041,-6.2041,-6.2041,-6.2041,-6.2041,-6.1507,-6.1582,-6.1592,-6.1681,-6.1704,-6.1766,-6.1791,-6.1823,-6.1851,-6.1925,-6.1968,-6.1983,-6.2013,-6.2065,-6.2111,-6.2116,-6.2133,-6.2154,-6.2156,-6.2058,-6.2044,-6.2031,-6.2013,-6.2159,-6.2159,-6.2254,-6.2255,-6.2256]},{"header":{"parameterUnit":"m.s-1","parameterCategory":1,"la1":30.2991,"la2":30.254,"lo1":-89.0895,"lo2":-89.0444,"dy":0.0017,"dx":0.0017,"nx":28,"ny":28,"refTime":"2024-04-08T03:00:00:Z","depth":0,"parameterNumber":3,"parameterNumberName":"V-component_of_WINDS"},"data":[0,0,0,0,0,0,0,0,0,0,0,0,0,0,0,0,0,0,0,0,0,0,0,0,0,0,0,0,0,0,0,0,0,0,0,0,0,0,0,0,0,0,0,0,0,0,0,0,0,0,0,0,0,0,0,0,0,0,2.9743,2.9744,0,2.9853,2.9854,2.9855,2.9879,2.9878,2.9877,2.9876,2.9988,2.9992,2.9996,0,0,0,0,0,0,0,0,0,0,0,0,0,2.9555,2.9558,2.9742,2.9744,2.9745,2.9852,2.9854,2.9856,2.9879,2.9878,2.9877,2.9876,2.9987,2.9992,2.9996,0,0,0,0,0,0,0,0,0,0,0,0,0,2.9648,2.9559,2.9742,2.977,2.9773,2.9852,2.9854,2.9856,2.9879,2.9878,2.9876,2.9875,2.9986,2.9991,2.9997,3.0056,0,0,3.0014,3.0016,0,0,0,0,0,0,0,0,2.9643,2.9655,2.9764,2.9768,2.9772,2.9851,2.9829,2.9923,2.9879,2.9839,2.9876,2.9875,2.9944,2.9953,2.9976,3.0061,3.0066,3.0014,3.0018,3.002,3.0022,0,0,0,0,0,0,0,2.9636,2.965,2.9786,2.9766,2.9771,2.9778,2.9789,2.9847,2.9897,2.9842,2.9844,2.9857,2.9945,2.997,2.9979,3.0068,3.0014,3.0019,3.0023,3.0025,3.0211,3.0213,0,0,0,0,0,0,2.9625,2.9645,2.9783,2.9789,2.9703,2.9782,2.9795,2.9827,2.9896,2.9906,2.9858,2.9858,2.9961,2.9972,2.9983,3.0059,3.002,3.0025,3.0029,3.021,3.0212,3.0213,0,0,0,0,0,0,2.962,2.9637,2.9778,2.9718,2.9736,2.9786,2.9822,2.9829,2.9854,2.9908,2.9917,2.9874,2.9961,2.9975,3.0039,3.0063,3.0028,3.0033,3.0208,3.021,3.0212,3.0211,0,0,0,0,0,0,2.9615,2.9635,2.9657,2.9718,2.9739,2.9831,2.9823,2.9833,2.9864,2.9865,2.9926,2.9934,2.9961,3.003,3.0044,3.007,3.0037,3.0206,3.0209,3.0212,3.0209,3.0213,3.0216,0,0,0,0,0,2.9608,2.9651,2.9658,2.9675,2.9768,2.9832,2.9845,2.9875,2.9866,2.9889,2.9925,2.9932,3.0058,3.0036,3.0052,3.0081,3.0204,3.0208,3.0211,3.0207,3.0212,3.0216,0,0,0,0,0,0,2.9591,2.9659,2.9668,2.9732,2.9776,2.9836,2.9866,2.9878,2.9926,2.9924,2.9959,2.9973,3.0035,3.0064,3.0039,3.0144,3.0131,3.0138,3.0122,3.0127,3.0131,3.0123,3.0042,0,0,0,0,0,2.9594,2.9641,2.9699,2.9749,2.9772,2.9815,2.9844,2.9864,2.9911,2.993,2.997,3.0016,3.0066,3.0098,3.0147,3.0213,3.0228,3.0241,3.0245,3.0247,3.0253,3.0294,3.0301,3.0225,3.0225,3.0225,0,0,2.9602,2.9646,2.9672,2.9747,2.9784,2.9832,2.9831,2.9881,2.9918,2.9938,3.0001,3.0032,3.0086,3.0152,3.0183,3.0178,3.0278,3.0252,3.0254,3.0258,3.0298,3.0305,3.0312,3.0227,3.0227,3.0226,0,0,2.9642,2.9678,2.9726,2.9764,2.982,2.985,2.9861,2.9921,2.9943,3.0007,3.0024,3.0069,3.0153,3.0192,3.0223,3.0282,3.0292,3.0297,3.0316,3.0355,3.0361,3.0367,3.039,3.0397,3.0302,3.0302,3.0302,0,2.9644,2.9717,2.9749,2.98,2.9834,2.9856,2.9906,2.9941,3.001,3.0033,3.0027,3.0137,3.0174,3.0252,3.0266,3.029,3.0306,3.029,3.0358,3.0363,3.0369,3.0392,3.04,3.0303,3.0303,3.0303,3.0303,0,2.9719,2.977,2.9802,2.987,2.9907,2.9957,2.9998,3.0032,3.005,3.008,3.0147,3.0194,3.0254,3.0274,3.029,3.0355,3.035,3.035,3.0339,3.0376,3.0398,3.0407,3.0303,3.0303,3.0303,3.0303,0,0,2.9748,2.9836,2.9847,2.988,2.9945,2.9986,3.0038,3.0099,3.0128,3.0176,3.0223,3.0296,3.0298,3.0333,3.0355,3.0389,3.0436,3.0385,3.0387,3.0395,3.0513,3.0513,3.0522,3.0443,3.0445,3.0446,3.0509,0,2.9796,2.989,2.9923,3.0001,3.005,3.0074,3.012,3.0166,3.0197,3.0244,3.0278,3.0331,3.0328,3.035,3.0385,3.0422,3.046,3.0418,3.0488,3.049,3.0474,3.0533,3.0533,3.0589,3.0517,3.0519,3.052,0,2.9865,2.9916,2.9999,3.0063,3.0084,3.0125,3.0185,3.0229,3.0283,3.0304,3.0345,3.0365,3.0423,3.0408,3.0489,3.046,3.0491,3.0514,3.0517,3.0525,3.0507,3.0544,3.0608,3.0617,3.0533,3.0532,3.0531,0,2.988,2.9969,3.0032,3.0059,3.0134,3.0162,3.0195,3.0248,3.0283,3.0336,3.036,3.0417,3.045,3.0495,3.0531,3.0516,3.061,3.0597,3.063,3.0629,3.0649,3.0647,3.0719,3.0667,3.0666,3.0666,3.0666,0,2.9931,2.9982,3.0041,3.0079,3.0138,3.0175,3.0233,3.0267,3.0314,3.0361,3.0385,3.0428,3.0473,3.0523,3.0552,3.0616,3.063,3.0649,3.0657,3.0648,3.0646,3.0669,3.0666,3.0669,3.0668,3.0668,3.0667,0,2.9958,2.9999,3.0069,3.0135,3.0153,3.0194,3.0251,3.029,3.0323,3.0383,3.0399,3.0451,3.0512,3.0553,3.0629,3.0649,3.072,3.0725,3.0702,3.0705,3.0737,3.0734,3.0827,3.0842,3.0778,3.0778,3.0779,0,2.9988,3.0028,3.01,3.0133,3.0166,3.0219,3.0256,3.0296,3.0334,3.0401,3.0433,3.0495,3.0547,3.0643,3.0688,3.0748,3.0756,3.0785,3.0765,3.0757,3.0759,3.0757,3.0762,3.0788,3.0789,3.0789,3.0789,0,3.0039,3.0058,3.011,3.0171,3.0215,3.0264,3.0314,3.034,3.0389,3.043,3.0493,3.0534,3.0614,3.0677,3.0742,3.0776,3.0792,3.0796,3.0807,3.0799,3.0784,3.0795,3.0712,3.0793,3.0793,3.0792,3.0792,3.0792,3.007,3.0108,3.0165,3.0223,3.0265,3.0312,3.0353,3.0393,3.0446,3.0515,3.0536,3.0602,3.0658,3.0748,3.0784,3.0837,3.0834,3.085,3.0854,3.0857,3.0859,3.0775,3.0849,3.0849,3.0849,3.0848,3.0848,0,3.0123,3.0162,3.0215,3.0285,3.0332,3.0343,3.04,3.0439,3.0497,3.0548,3.06,3.0674,3.0736,3.0788,3.0852,3.0885,3.0894,3.09,3.0899,3.0907,3.0856,3.0841,3.0892,3.0892,3.0892,3.0892,3.0892,3.0892,3.0156,3.0222,3.0249,3.0337,3.0376,3.0441,3.0473,3.0517,3.0559,3.0641,3.0693,3.0726,3.0779,3.0848,3.0906,3.092,3.0943,3.0949,3.0964,3.0915,3.091,3.0906,3.0892,3.0953,3.0953,3.1011,3.1012,3.1012]}]]